Volver al catálogo

CZ-6A DEB

ActivoPO
NORAD 60779·DEBRIS·🇨🇳 China

Lanzado Aug 6, 2024 desde Taiyuan Satellite Launch Center

Loading…

Próximos Pases (próximas 24 horas)

TLE

ActualizadoSource: Space-Track

Época: Sep 14, 2026, 08:24 UTC

1 60779U 24140FE  26257.35041793  .00009145  00000-0  11080-2 0  9995
2 60779  88.9668 254.6485 0071078 253.7558 105.5839 14.81730214111722

Sigue CZ-6A DEB en tiempo real con AllMySat

Download on the App Store